Station CMTI2 - 9087044 - Calumet Harbor, IL Image indicating link to RSS feed of recent meteorological observations for station CMTI2


Conditions at CMTI2 as of
(2:48 am CDT)
0748 GMT on 04/17/2024:
     

Click on the graph icon in the table below to see a time series plot of the last five days of that observation.

5-day plot - Wind Direction Wind Direction (WDIR):SSE ( 160 deg true )
5-day plot - Wind Speed Wind Speed (WSPD): 11.1 kts
5-day plot - Wind Gust Wind Gust (GST): 19.0 kts
5-day plot - Atmospheric Pressure Atmospheric Pressure (PRES):29.60 in
5-day plot - Air Temperature Air Temperature (ATMP): 67.1 °F
5-day plot - Dew Point Dew Point (DEWP): 62.2 °F
5-day plot - Wind Speed at 10 Meters Wind Speed at 10 meters (WSPD10M): 11.7 kts
5-day plot - Wind Speed at 20 Meters Wind Speed at 20 meters (WSPD20M): 11.7 kts
5-day plot -  Wind Speed, Wind Gust and Atmospheric Pressure Combined plot of Wind Speed, Gust, and Air Pressure
NOS Water Level Observation Network Water Level
Previous observations
TIME
(CDT)
5-day plot - Wind Direction
WDIR
 
5-day plot - Wind Speed
WSPD
kts
5-day plot - Wind Gust
GST
kts
5-day plot - Wave Height
WVHT
ft
5-day plot - Dominant Wave Period
DPD
sec
5-day plot - Average Wave Period
APD
sec
5-day plot - Mean Wave Direction
MWD
 
5-day plot - Atmospheric Pressure
PRES
in
5-day plot - Pressure Tendency
PTDY
in
5-day plot - Air Temperature
ATMP
°F
5-day plot - Water Temperature
WTMP
°F
5-day plot - Dew Point
DEWP
°F
5-day plot - Salinity
SAL
psu
5-day plot - Visibility
VIS
nmi
5-day plot - Tide (above MLLW)
TIDE
ft
2024-04-17 02:42 am S 11.1 18.1----29.61- 66.9- 61.9---
2024-04-17 02:36 amSSE 13.0 17.1----29.61- 67.3- 62.1---
2024-04-17 02:30 amSSE 12.0 17.1----29.61- 67.3- 61.9---
2024-04-17 02:24 am S 11.1 15.0----29.61- 67.5- 61.9---
2024-04-17 02:18 amSSE 12.0 18.1----29.62-------
2024-04-17 02:12 am S 8.9 13.0----29.62- 67.3- 61.3---
2024-04-17 02:06 amSSE 11.1 15.0----29.62- 67.5- 61.3---
2024-04-17 02:00 amSSE 9.9 17.1----29.62-0.06 67.5- 61.2---
2024-04-17 01:54 amSSE 8.9 11.1----29.62- 67.3- 61.0---
2024-04-17 01:48 amSSE 11.1 14.0----29.62- 67.3- 60.8---
2024-04-17 01:42 amSSE 11.1 13.0----29.62- 67.5- 61.0---
2024-04-17 01:36 amSSE 9.9 15.0----29.63- 67.3- 60.8---
2024-04-17 01:30 amSSE 8.9 13.0----29.63- 67.1- 60.6---
2024-04-17 01:24 amSSE 12.0 15.9----29.64- 67.6- 60.8---
2024-04-17 01:18 amSSE 8.9 14.0----29.64- 67.5- 60.6---
2024-04-17 01:12 amSSE 9.9 14.0----29.64- 67.5- 60.6---
2024-04-17 01:06 am SE 8.9 12.0----29.64- 67.6- 60.8---
2024-04-17 01:00 amSSE 7.0 14.0----29.65-0.06 67.8- 60.8---
2024-04-17 12:54 amSSE 9.9 15.9----29.65- 68.2- 61.0---
2024-04-17 12:48 amSSE 8.9 14.0----29.65- 67.8- 60.6---
2024-04-17 12:42 amSSE 9.9 13.0----29.65- 67.5- 60.1---
2024-04-17 12:36 amSSE 9.9 12.0----29.65- 67.8- 60.3---
2024-04-17 12:30 am S 11.1 18.1----29.66- 68.0- 60.3---
2024-04-17 12:24 amSSE 8.0 15.9----29.66- 67.5- 59.9---
2024-04-17 12:18 amSSE 11.1 15.9----29.66- 67.6- 60.1---
2024-04-17 12:12 amSSE 8.0 13.0----29.65- 66.9- 59.5---
2024-04-17 12:06 amSSE 8.9 12.0----29.65- 66.9- 59.7---
2024-04-17 12:00 amSSE 8.9 14.0----29.65-0.04 66.9- 59.9---
2024-04-16 11:54 pm SE 9.9 13.0----29.66- 66.9- 59.9---
2024-04-16 11:48 pm SE 11.1 14.0----29.66- 66.9- 60.1---
2024-04-16 11:42 pmSSE 8.0 12.0----29.67- 66.9- 60.3---
2024-04-16 11:36 pm SE 8.9 11.1----29.67- 66.9- 60.3---
2024-04-16 11:30 pm SE 8.0 12.0----29.67- 66.7- 60.4---
2024-04-16 11:24 pm SE 9.9 12.0----29.67- 66.9- 60.6---
2024-04-16 11:18 pmSSE 6.0 11.1----29.68-------
2024-04-16 11:12 pmSSE 7.0 8.9----29.68- 66.6- 60.4---
2024-04-16 11:06 pm SE 8.9 12.0----29.68- 66.9- 60.4---
2024-04-16 11:00 pm SE 8.9 12.0----29.68+0.00 67.1- 60.4---
2024-04-16 10:54 pm SE 8.0 15.0----29.69- 67.1- 60.4---
2024-04-16 10:48 pm SE 8.9 15.0----29.69- 67.5- 60.8---
2024-04-16 10:42 pm SE 6.0 11.1----29.70- 67.1- 60.4---
2024-04-16 10:36 pm SE 8.9 13.0----29.70- 67.6- 60.6---
2024-04-16 10:30 pm SE 8.0 12.0----29.70- 67.5- 60.6---
2024-04-16 10:24 pmSSE 8.0 14.0----29.70- 67.6- 60.8---
2024-04-16 10:18 pmSSE 8.0 12.0----29.70- 67.5- 60.8---
2024-04-16 10:12 pm SE 8.0 11.1----29.70- 67.6- 61.2---
2024-04-16 10:06 pm SE 8.9 12.0----29.70- 67.5- 61.3---
2024-04-16 10:00 pm SE 6.0 9.9----29.70+0.08 66.6- 60.6---
2024-04-16 09:54 pmSSE 7.0 13.0----29.70- 66.9- 60.3---
2024-04-16 09:48 pmSSE 12.0 18.1----29.71- 67.6- 59.9---
2024-04-16 09:42 pmSSE 14.0 19.0----29.71- 69.3- 58.8---
2024-04-16 09:36 pm SE 11.1 19.0----29.70- 70.3- 59.0---
2024-04-16 09:30 pm SE 11.1 15.9----29.69- 70.7- 59.2---
2024-04-16 09:24 pm SE 7.0 13.0----29.70- 70.7- 59.4---
2024-04-16 09:12 pmSSE 8.9 15.9----29.71- 71.2- 59.0---
2024-04-16 09:06 pm S 8.9 15.0----29.71- 71.4- 59.0---
2024-04-16 09:00 pm SE 9.9 20.0----29.70-0.04 71.6- 59.0---
2024-04-16 08:54 pm SE 15.0 21.0----29.69- 72.0- 58.8---
2024-04-16 08:48 pm SE 13.0 19.0----29.69- 72.3- 58.6---
2024-04-16 08:42 pm SE 13.0 22.0----29.69- 72.5- 58.3---
2024-04-16 08:36 pm SE 11.1 22.0----29.69- 72.5- 57.9---
2024-04-16 08:30 pm SE 11.1 20.0----29.69- 72.7- 57.9---
2024-04-16 08:24 pmSSE 13.0 17.1----29.68- 72.7- 57.7---
2024-04-16 08:18 pm SE 11.1 15.0----29.67-------
2024-04-16 08:12 pm SE 11.1 15.0----29.67- 72.9- 57.4---
2024-04-16 08:06 pm SE 8.9 12.0----29.67- 72.3- 57.4---
2024-04-16 08:00 pmSSE 11.1 14.0----29.68-0.06 72.7- 57.6---
2024-04-16 07:54 pmSSE 9.9 14.0----29.67- 72.5- 57.6---
2024-04-16 07:48 pmSSE 11.1 14.0----29.68- 72.9- 57.2---
2024-04-16 07:42 pmSSE 13.0 18.1----29.68- 73.6- 56.8---
2024-04-16 07:36 pmSSE 13.0 19.0----29.68- 74.5- 56.3---
2024-04-16 07:30 pmSSE 14.0 19.0----29.68- 75.7- 55.9---
2024-04-16 07:24 pm SE 12.0 19.0----29.65- 74.3- 56.3---
2024-04-16 07:18 pmESE 14.0 22.9----29.63- 73.4- 55.9---
2024-04-16 07:12 pmESE 14.0 22.0----29.63- 72.5- 56.3---
2024-04-16 07:06 pmESE 15.0 22.0----29.62- 71.8- 57.0---
2024-04-16 07:00 pmESE 15.0 22.0----29.62-0.09 72.0- 57.7---
2024-04-16 06:54 pmESE 15.9 21.0----29.63- 72.1- 58.1---
2024-04-16 06:48 pmESE 15.9 22.9----29.64-------
2024-04-16 06:42 pmESE 17.1 22.0----29.64- 71.4- 59.5---
2024-04-16 06:36 pm E 15.9 21.0----29.65- 71.6- 59.2---
2024-04-16 06:30 pm E 18.1 22.9----29.66- 72.9- 59.0---
2024-04-16 06:24 pmESE 15.0 20.0----29.68- 74.3- 58.8---
2024-04-16 06:18 pm SE 12.0 18.1----29.71- 74.8- 59.9---
2024-04-16 06:12 pm SE 12.0 17.1----29.71- 74.8- 59.7---
2024-04-16 06:06 pm SE 11.1 17.1----29.72- 75.6- 59.9---
2024-04-16 06:00 pm SE 12.0 17.1----29.74-0.01 75.7- 59.5---
2024-04-16 05:54 pm SE 11.1 17.1----29.74- 75.6- 59.5---
2024-04-16 05:48 pm SE 11.1 15.9----29.74- 75.4- 60.1---
2024-04-16 05:42 pmESE 12.0 17.1----29.73- 75.7- 60.1---
2024-04-16 05:36 pm SE 9.9 15.0----29.74- 75.9- 60.1---
2024-04-16 05:30 pm SE 8.9 21.0----29.74-------
2024-04-16 05:24 pmSSE 12.0 20.0----29.75-------
2024-04-16 05:18 pmSSE 14.0 20.0----29.76-------
2024-04-16 05:12 pmSSE 11.1 20.0----29.76-------
2024-04-16 05:06 pmSSE 14.0 21.0----29.75-------
2024-04-16 05:00 pmSSE 13.0 21.0----29.74-0.09 79.0- 59.5---
2024-04-16 04:54 pmSSE 15.9 21.0----29.73- 79.0- 59.4---
2024-04-16 04:48 pm SE 14.0 22.9----29.72- 78.1- 59.0---
2024-04-16 04:42 pmESE 14.0 21.0----29.71- 77.5- 58.6---
2024-04-16 04:36 pmESE 9.9 21.0----29.71- 77.9- 58.6---
2024-04-16 04:30 pm SE 15.0 21.0----29.71- 78.6- 58.8---
2024-04-16 04:24 pm SE 12.0 28.0----29.71- 78.6- 59.0---
2024-04-16 04:18 pm SE 18.1 22.9----29.72- 79.0- 59.2---
2024-04-16 04:12 pm SE 15.9 24.1----29.72- 78.8- 59.0---
2024-04-16 04:06 pm SE 14.0 20.0----29.72- 78.6- 59.2---
2024-04-16 04:00 pmESE 14.0 19.0----29.72-0.14 77.2- 58.8---
2024-04-16 03:54 pmESE 15.0 19.0----29.72- 76.3- 59.0---
2024-04-16 03:48 pmESE 12.0 17.1----29.72- 74.3- 58.3---
2024-04-16 03:42 pmESE 14.0 22.0----29.73- 75.2- 58.5---
2024-04-16 03:36 pmESE 14.0 19.0----29.73- 75.2- 58.3---
2024-04-16 03:30 pm SE 15.9 22.9----29.74- 76.5- 59.2---
2024-04-16 03:24 pmESE 14.0 21.0----29.75- 75.6- 58.5---
2024-04-16 03:18 pmESE 15.9 20.0----29.75- 75.9- 58.6---
2024-04-16 03:12 pmESE 14.0 24.1----29.75- 75.6- 58.3---
2024-04-16 03:06 pmESE 17.1 24.1----29.75- 75.6- 58.1---
2024-04-16 03:00 pmESE 15.0 20.0----29.75-0.15 76.3- 59.0---
2024-04-16 02:54 pmESE 15.0 20.0----29.76- 76.8- 59.0---
2024-04-16 02:48 pmESE 15.0 21.0----29.77- 76.3- 58.5---
2024-04-16 02:42 pm SE 14.0 18.1----29.78- 76.8- 58.6---
2024-04-16 02:36 pmESE 9.9 14.0----29.79- 75.2- 56.7---
2024-04-16 02:30 pm SE 11.1 19.0----29.80- 76.3- 57.0---
2024-04-16 02:24 pm SE 13.0 18.1----29.80- 76.3- 56.8---
2024-04-16 02:18 pm SE 15.0 20.0----29.81- 76.3- 56.7---
2024-04-16 02:12 pm SE 9.9 14.0----29.82- 76.3- 56.8---
2024-04-16 02:06 pmESE 11.1 18.1----29.82- 75.4- 55.9---
2024-04-16 02:00 pmESE 11.1 14.0----29.83-0.10 75.6- 55.9---
2024-04-16 01:54 pm SE 15.0 19.0----29.83- 76.1- 56.3---
2024-04-16 01:48 pmESE 11.1 15.9----29.83- 74.8- 55.6---
2024-04-16 01:42 pmESE 9.9 15.0----29.84- 75.0- 55.8---
2024-04-16 01:36 pm SE 15.0 19.0----29.84- 75.2- 57.9---
2024-04-16 01:30 pm E 7.0 17.1----29.85- 68.9- 54.3---
2024-04-16 01:24 pm E 5.1 8.0----29.85- 62.4- 50.7---
2024-04-16 01:18 pm E 6.0 8.9----29.85- 64.8- 51.1---
2024-04-16 01:12 pm E 6.0 8.9----29.85- 65.7- 51.6---
2024-04-16 01:06 pm E 6.0 8.9----29.85- 64.0- 51.1---
2024-04-16 01:00 pm E 6.0 9.9----29.86-0.10 62.4- 50.4---
2024-04-16 12:54 pmENE 5.1 8.0----29.86- 61.9- 50.0---
2024-04-16 12:48 pmENE 5.1 7.0----29.87- 61.3- 49.3---
2024-04-16 12:42 pmENE 5.1 6.0----29.87- 61.3- 49.3---
2024-04-16 12:36 pm NE 4.1 6.0----29.88- 60.1- 48.2---
2024-04-16 12:30 pm NE 4.1 6.0----29.88- 60.3- 48.7---
2024-04-16 12:24 pm NE 4.1 5.1----29.89- 58.6- 47.5---
2024-04-16 12:18 pm NE 4.1 5.1----29.90- 58.6- 48.0---
2024-04-16 12:12 pmENE 2.9 5.1----29.90- 56.5- 47.3---
2024-04-16 12:06 pmENE 5.1 8.0----29.90- 55.2- 46.2---
2024-04-16 12:00 pmENE 5.1 6.0----29.90-0.08 55.4- 46.4---
2024-04-16 11:54 am E 1.9 9.9----29.91- 55.8- 47.7---
2024-04-16 11:48 am NE 8.0 9.9----29.90-------
2024-04-16 11:42 am NE 9.9 11.1----29.91- 54.0- 46.2---
2024-04-16 11:36 am NE 8.9 12.0----29.91- 54.0- 46.0---
2024-04-16 11:30 am NE 11.1 12.0----29.91- 54.3- 45.9---
2024-04-16 11:24 am NE 8.9 11.1----29.92- 54.9- 46.6---
2024-04-16 11:18 am NE 8.9 12.0----29.92-------
2024-04-16 11:12 am NE 11.1 13.0----29.92- 54.0- 45.9---
2024-04-16 11:06 am NE 11.1 14.0----29.93- 54.0- 45.7---
2024-04-16 11:00 am NE 12.0 14.0----29.93-0.07 54.0- 45.7---
2024-04-16 10:54 am NE 11.1 12.0----29.94- 54.0- 45.7---
2024-04-16 10:48 am NE 8.9 12.0----29.94- 54.0- 46.0---
2024-04-16 10:42 am NE 11.1 12.0----29.94- 53.2- 45.3---
2024-04-16 10:36 am NE 11.1 13.0----29.94- 53.1- 45.0---
2024-04-16 10:30 am NE 9.9 12.0----29.95- 53.1- 45.1---
2024-04-16 10:24 am NE 8.9 11.1----29.95- 52.3- 45.0---
2024-04-16 10:18 am NE 8.0 9.9----29.96- 52.2- 45.1---
2024-04-16 10:12 am NE 8.9 11.1----29.96- 51.8- 44.8---
2024-04-16 10:06 am NE 8.0 9.9----29.96- 52.0- 45.1---
2024-04-16 10:00 am NE 8.0 9.9----29.96-0.02 51.1- 44.2---
2024-04-16 09:54 am NE 8.9 11.1----29.96- 51.3- 44.2---
2024-04-16 09:48 am NE 8.0 9.9----29.96- 51.4- 44.1---
2024-04-16 09:42 am NE 7.0 8.9----29.96- 51.8- 44.6---
2024-04-16 09:36 am NE 8.0 9.9----29.97- 51.8- 44.4---
2024-04-16 09:30 am NE 7.0 8.9----29.97- 52.2- 44.8---
2024-04-16 09:24 am NE 8.0 9.9----29.98- 51.6- 44.2---
2024-04-16 09:18 am NE 7.0 8.9----29.98-------
2024-04-16 09:12 am NE 8.0 9.9----29.98- 51.3- 44.1---
2024-04-16 09:06 am NE 8.0 9.9----29.98- 51.4- 43.9---
2024-04-16 09:00 am NE 8.9 11.1----29.98-0.01 51.6- 43.7---
2024-04-16 08:54 am NE 8.0 12.0----29.99- 52.0- 44.1---
2024-04-16 08:48 amENE 8.9 11.1----29.99- 51.6- 44.1---
2024-04-16 08:42 am NE 7.0 8.9----29.99- 51.3- 44.2---
2024-04-16 08:36 am NE 7.0 8.9----29.99- 51.1- 44.1---
2024-04-16 08:30 am NE 7.0 8.9----29.99- 50.9- 43.9---
2024-04-16 08:24 am NE 8.0 8.9----29.99- 50.5- 43.2---
2024-04-16 08:18 amENE 6.0 8.0----30.00- 51.1- 43.7---
2024-04-16 08:12 amENE 6.0 8.0----30.00- 50.9- 43.2---
2024-04-16 08:06 amENE 7.0 8.9----30.00- 51.3- 43.7---
2024-04-16 08:00 am NE 6.0 8.9----30.00+0.00 51.3- 43.9---
2024-04-16 07:54 amENE 7.0 8.9----29.99- 50.7- 43.3---
2024-04-16 07:48 am NE 7.0 8.9----30.00- 50.9- 43.5---
2024-04-16 07:42 am NE 6.0 8.0----30.00- 50.7- 43.5---
2024-04-16 07:36 amENE 8.0 8.9----30.00- 50.2- 42.6---
2024-04-16 07:30 amENE 8.0 9.9----29.99- 50.0- 42.3---
2024-04-16 07:24 am E 6.0 8.9----30.00- 50.2- 42.6---
2024-04-16 07:18 amENE 8.0 8.9----29.99- 50.0- 42.4---
2024-04-16 07:12 amENE 8.9 9.9----29.99- 49.8- 42.3---
2024-04-16 07:06 amENE 8.9 9.9----29.99- 50.0- 42.4---
2024-04-16 07:00 amENE 7.0 9.9----29.98-0.01 50.2- 43.0---
2024-04-16 06:54 amENE 7.0 9.9----29.99- 50.0- 42.6---
2024-04-16 06:48 amENE 7.0 8.9----29.99-------
2024-04-16 06:42 amENE 7.0 8.0----29.99- 50.4- 43.0---
2024-04-16 06:36 amENE 7.0 9.9----29.99- 50.4- 43.0---
2024-04-16 06:30 amENE 6.0 8.0----29.99- 50.5- 43.0---
2024-04-16 06:24 amENE 7.0 8.0----29.99- 50.4- 43.0---
2024-04-16 06:18 amENE 6.0 7.0----30.00- 50.2- 43.0---
2024-04-16 06:12 amENE 5.1 7.0----30.00- 50.0- 43.0---
2024-04-16 06:06 amENE 5.1 7.0----30.00- 50.0- 43.0---
2024-04-16 06:00 amENE 6.0 8.0----30.00-0.01 50.0- 43.0---
2024-04-16 05:54 amENE 6.0 8.9----29.99- 49.8- 42.8---
2024-04-16 05:48 amENE 6.0 8.0----30.00- 50.4- 43.2---
2024-04-16 05:42 amENE 6.0 8.9----30.00- 50.4- 43.5---
2024-04-16 05:36 amENE 6.0 8.0----30.00- 50.0- 43.5---
2024-04-16 05:30 amENE 6.0 8.0----30.00- 49.8- 43.2---
2024-04-16 05:24 am NE 7.0 8.0----29.99- 49.8- 44.1---
2024-04-16 05:18 am NE 6.0 8.0----30.00- 49.6- 43.9---
2024-04-16 05:12 am NE 5.1 6.0----30.00- 49.3- 43.5---
2024-04-16 05:06 am NE 4.1 5.1----30.00- 49.6- 43.5---
2024-04-16 05:00 amENE 4.1 5.1----30.00-0.01 50.0- 43.3---
2024-04-16 04:54 amENE 4.1 6.0----30.00- 50.2- 43.2---
2024-04-16 04:48 amENE 2.9 5.1----29.99- 50.4- 43.3---
2024-04-16 04:42 amENE 5.1 7.0----29.99- 50.4- 43.0---
2024-04-16 04:36 amENE 5.1 7.0----29.99- 50.5- 43.0---
2024-04-16 04:30 am E 6.0 8.0----29.99- 50.7- 43.3---
2024-04-16 04:24 am E 5.1 7.0----30.00- 50.4- 43.3---
2024-04-16 04:18 amENE 4.1 6.0----29.99- 50.0- 43.3---
2024-04-16 04:12 am E 4.1 6.0----29.99- 49.8- 43.0---
2024-04-16 04:06 amENE 5.1 8.0----29.99- 49.8- 42.8---
2024-04-16 04:00 amENE 5.1 8.0----30.00-0.01 50.4- 43.0---
2024-04-16 03:54 amENE 4.1 7.0----30.00- 50.4- 43.5---
2024-04-16 03:48 amENE 7.0 8.9----29.99-------
2024-04-16 03:42 am NE 8.0 9.9----29.99- 49.6- 43.0---
2024-04-16 03:36 am NE 7.0 9.9----29.99- 49.3- 42.6---
2024-04-16 03:30 am NE 8.9 11.1----29.99- 49.8- 43.2---
2024-04-16 03:24 amNNE 7.0 9.9----29.99- 48.4- 42.1---
2024-04-16 03:18 amNNE 7.0 9.9----29.99- 48.6- 41.7---
2024-04-16 03:12 amNNE 7.0 12.0----30.00- 48.9- 41.7---
2024-04-16 03:06 amNNE 8.0 9.9----30.00- 49.5- 42.4---
2024-04-16 03:00 amNNE 4.1 7.0----30.01+0.00 48.6- 41.9---
2024-04-16 02:54 amNNE 7.0 11.1----30.01- 49.3- 42.6---